Wind_Speed
9 12 16 21 25 29 33 37 41 45 49 53 56 58 57 55 54 53 54 56 60 65 69 71 72 74 75 75 73 70 68 67 66 66 67 69 70 71 73 76 75 67 52 38
11 14 16 19 24 28 33 37 41 46 49 54 57 59 59 57 56 55 55 56 60 65 69 70 71 73 74 73 72 69 67 65 64 64 66 68 70 70 71 73 75 71 60 45
13 15 17 19 23 28 32 36 41 46 50 55 58 61 61 60 58 57 56 57 60 65 68 70 70 71 72 72 71 69 66 64 63 63 64 67 68 69 69 71 73 73 67 54
16 17 19 22 25 29 32 36 41 45 49 54 58 62 64 63 61 60 58 57 60 64 68 69 69 70 70 71 70 68 65 63 62 62 63 64 66 67 67 68 70 71 70 63
20 21 20 23 27 31 34 36 41 45 49 54 58 62 65 66 64 62 60 58 60 64 67 68 68 68 69 70 69 67 64 62 61 61 61 62 64 65 65 66 67 69 70 68
24 25 25 27 29 32 36 40 43 47 51 54 58 62 65 67 67 64 62 59 60 63 66 67 67 67 68 69 68 66 63 60 60 59 60 60 61 63 64 64 65 67 68 69
26 27 28 29 32 34 37 40 44 47 51 54 58 61 65 68 68 67 64 61 60 63 66 67 67 66 67 68 67 66 63 59 58 58 58 59 59 61 62 63 63 64 66 67
29 29 31 31 33 36 37 40 43 46 50 54 57 61 65 68 70 69 66 62 61 62 65 66 66 65 66 66 66 65 62 59 57 57 57 57 57 58 59 60 61 61 62 64
31 30 34 34 35 37 39 40 43 46 50 54 57 61 64 68 70 70 68 64 61 61 64 65 65 64 64 65 65 63 62 59 57 56 55 55 55 56 56 58 58 58 59 61
34 32 36 37 37 39 41 42 44 47 50 54 57 61 64 67 70 71 70 66 61 61 63 64 64 63 63 63 63 62 60 58 56 55 54 54 54 54 54 55 56 56 57 58
36 35 39 37 39 41 43 45 46 47 50 53 57 60 63 66 69 71 70 67 62 60 61 63 63 62 61 62 62 61 59 58 56 54 53 53 53 53 53 54 55 56 56 56
39 40 42 40 41 43 45 47 48 49 51 53 57 60 63 66 68 70 70 68 62 59 60 62 62 61 60 60 60 60 58 57 55 53 51 50 51 52 53 53 53 54 55 55
43 44 45 44 44 45 47 50 51 51 52 53 57 60 62 65 67 69 69 68 63 59 59 60 61 60 59 58 58 58 57 56 54 52 50 49 48 48 49 51 51 51 52 52
44 47 48 47 47 48 50 52 53 53 53 54 57 60 62 64 66 68 68 67 63 58 57 59 59 58 57 56 56 56 55 54 53 51 50 48 47 46 46 47 48 49 49 49
44 47 49 50 50 51 53 54 55 55 55 55 57 60 61 63 65 66 67 67 63 58 56 57 57 57 56 55 55 55 54 53 52 51 49 48 47 46 45 45 45 46 46 47
43 46 48 50 52 53 55 56 57 57 57 57 58 59 61 62 63 65 65 66 63 57 55 56 56 56 55 54 53 53 53 52 51 50 48 47 47 46 44 43 43 43 44 44
43 44 46 49 52 54 56 58 59 59 59 58 58 59 59 60 62 63 64 64 62 57 54 54 54 54 54 52 52 52 52 51 50 49 48 47 46 45 44 43 42 42 42 42
45 45 46 49 53 56 59 60 61 61 60 59 58 58 58 59 61 62 62 63 61 56 53 53 53 52 52 51 50 50 50 51 50 49 47 46 45 45 44 44 42 41 40 40
53 49 48 50 53 57 59 61 62 62 60 59 58 57 57 58 59 60 60 61 60 55 52 51 51 50 50 50 48 48 49 49 49 48 47 46 44 44 44 43 43 41 39 38
62 59 56 54 54 56 59 61 62 62 61 59 57 56 56 56 57 58 59 60 59 55 51 50 50 49 48 48 47 47 47 48 48 47 47 45 44 43 43 43 42 41 39 37
69 68 64 60 57 56 57 59 61 62 61 59 56 55 54 55 56 56 57 59 58 55 50 48 49 47 46 46 46 45 45 46 47 47 46 45 44 42 42 42 41 40 38 36
72 71 68 63 59 56 55 57 59 60 60 58 55 53 53 53 54 55 56 57 57 54 49 47 47 46 44 44 44 44 44 44 45 46 46 45 43 42 41 41 40 39 37 35
69 69 67 64 60 56 54 55 57 59 59 57 54 52 52 52 53 53 54 56 56 53 48 46 46 45 43 43 43 42 42 42 44 44 45 44 43 41 40 39 39 37 36 34
65 63 63 62 59 56 54 54 56 57 57 56 53 52 52 51 51 52 53 55 55 51 47 45 44 43 41 41 41 40 40 40 42 43 44 43 42 40 39 38 37 36 34 33
60 58 57 57 57 55 54 55 56 56 57 55 53 52 51 50 50 51 52 54 53 50 46 43 43 42 40 39 39 39 38 38 40 41 42 43 41 39 37 36 36 34 32 32
52 52 52 52 54 55 56 57 57 58 57 56 54 52 51 50 50 50 51 52 52 49 45 42 41 40 39 38 37 37 36 37 38 39 41 41 41 39 37 35 34 32 31 30
54 51 49 49 51 53 55 57 58 59 58 57 55 53 51 50 49 49 50 51 51 48 44 41 40 39 38 37 36 35 35 35 36 37 39 40 40 38 36 34 32 31 29 28
Wind_Direction
348 356 0 1 360 359 0 2 2 2 0 359 358 356 353 349 345 341 341 343 346 347 348 348 348 348 348 349 349 350 352 353 355 358 0 2 3 4 4 6 8 9 7 2
332 343 350 352 353 354 354 357 359 359 0 360 358 355 353 350 347 343 342 343 346 348 349 349 349 349 350 350 351 352 353 355 357 359 2 3 5 5 6 8 10 12 12 8
316 327 336 343 349 351 353 354 356 357 358 359 357 356 354 352 348 345 344 344 346 348 349 349 350 351 351 351 352 353 355 356 358 360 2 4 6 7 8 10 12 14 15 13
304 316 330 336 342 346 351 351 354 355 356 357 357 356 355 353 350 347 345 344 346 348 349 350 351 352 351 352 354 355 356 358 359 0 3 5 7 8 9 11 13 15 16 17
300 309 321 327 334 340 345 349 351 353 354 355 355 355 354 354 351 349 346 345 347 349 350 351 352 352 352 354 355 357 358 359 359 1 4 6 7 9 11 12 14 15 17 19
297 306 316 323 327 334 339 345 348 351 352 353 353 353 353 353 352 350 347 346 347 349 350 351 352 353 354 355 357 358 359 359 0 2 5 7 8 10 12 13 14 16 18 19
291 301 309 315 322 328 336 341 344 348 349 350 351 351 351 352 352 350 348 347 347 349 350 352 353 354 354 356 358 359 0 0 1 4 6 7 9 11 12 14 15 16 18 19
286 297 304 310 315 322 329 335 340 343 346 347 348 349 350 351 351 350 349 347 347 349 350 351 353 354 355 356 358 360 1 2 3 5 7 8 10 11 13 15 16 17 18 19
282 293 298 304 309 315 322 329 335 339 342 345 345 346 348 349 349 350 349 347 347 348 350 351 353 354 355 356 358 360 2 2 3 5 7 9 11 12 13 15 16 17 18 19
278 288 292 298 304 309 316 323 329 334 339 342 343 344 345 346 347 348 348 347 346 347 349 351 352 354 355 356 358 360 2 3 3 4 7 9 11 12 13 15 16 18 19 20
275 282 285 292 298 304 310 317 323 329 334 338 340 341 342 344 345 346 347 346 346 346 348 350 352 354 355 356 358 360 2 3 3 4 5 7 9 12 13 14 16 18 19 20
272 276 280 287 292 298 305 312 318 324 329 333 336 338 339 341 343 344 345 345 345 345 347 349 351 353 355 356 357 359 1 3 4 4 4 5 7 9 12 14 16 17 18 19
271 274 279 285 289 295 302 308 313 319 324 329 332 334 336 338 340 342 343 344 344 344 345 348 350 352 354 355 357 359 0 2 4 4 4 5 6 8 10 12 13 15 16 18
267 273 278 283 287 293 298 303 308 313 319 324 328 330 333 335 337 339 341 343 342 342 344 346 349 351 353 355 356 358 359 1 2 3 4 4 5 5 7 10 12 13 14 16
265 269 274 279 283 288 293 298 302 308 314 319 323 326 329 331 334 337 339 341 341 341 342 345 347 350 352 354 355 357 358 0 1 2 3 4 4 4 5 6 9 11 12 13
262 264 269 275 279 284 289 293 298 303 309 314 318 321 325 328 331 334 337 339 340 340 340 343 345 348 351 352 354 356 357 359 0 1 2 3 4 4 4 3 4 7 10 12
263 263 265 269 274 279 284 288 293 298 304 308 313 317 320 324 328 332 335 337 338 338 338 341 343 346 349 351 353 355 356 358 359 359 0 1 3 4 4 3 3 4 6 8
263 262 263 266 270 274 279 283 288 294 299 303 308 312 317 321 325 329 332 335 336 336 336 338 341 344 347 350 352 354 355 357 357 358 358 359 1 2 3 3 3 2 3 5
262 261 261 262 265 270 275 280 285 290 295 299 304 308 313 317 322 326 330 332 334 335 335 336 339 342 345 348 350 353 355 356 356 356 356 357 359 0 1 2 2 2 2 3
263 262 260 259 262 266 271 276 281 285 290 295 300 304 309 314 318 323 327 330 332 333 333 334 337 339 342 346 349 352 354 355 355 355 355 356 357 358 359 0 1 1 1 2
263 264 264 262 262 264 268 272 277 281 286 292 296 301 305 310 315 320 325 328 330 331 331 332 334 337 340 344 347 350 353 354 354 354 354 354 355 356 358 359 360 0 1 1
262 264 265 265 265 265 266 269 273 278 283 288 292 297 302 307 312 317 322 325 328 329 329 330 332 334 337 341 345 348 351 353 353 353 353 353 354 355 356 357 358 359 360 1
261 262 264 265 266 266 266 268 271 275 280 284 289 294 298 304 309 314 319 323 325 326 327 328 329 331 334 338 342 346 349 352 352 352 352 352 352 353 354 355 357 358 359 0
261 261 261 262 263 264 265 266 268 271 276 281 286 291 295 300 305 310 316 320 322 324 324 326 327 328 331 335 339 344 348 350 351 351 351 350 351 352 353 354 356 357 358 359
261 261 260 260 260 260 260 262 265 269 274 278 283 287 292 297 302 307 312 317 320 321 322 323 325 326 328 332 337 341 346 349 350 350 350 349 350 351 352 353 354 356 357 358
258 257 256 256 255 256 258 260 263 267 271 275 279 283 288 293 298 303 309 313 317 318 319 320 323 324 326 330 334 339 343 347 349 349 348 348 348 349 350 351 353 354 356 357
250 249 250 251 251 253 255 258 261 264 268 271 275 280 285 289 294 300 305 310 314 315 316 318 320 321 323 327 331 336 341 345 347 347 347 347 347 348 349 350 351 353 355 356
Height
5867 5864 5860 5856 5851 5845 5839 5832 5826 5818 5809 5800 5789 5778 5767 5755 5744 5733 5722 5710 5697 5683 5668 5652 5635 5618 5601 5584 5567 5550 5534 5518 5501 5484 5467 5449 5432 5414 5396 5376 5356 5337 5321 5310
5865 5862 5858 5854 5849 5843 5837 5830 5823 5814 5806 5796 5786 5775 5763 5752 5740 5729 5717 5705 5692 5679 5663 5647 5631 5614 5598 5582 5566 5549 5533 5516 5500 5484 5468 5451 5434 5417 5399 5381 5362 5343 5327 5315
5862 5859 5856 5852 5847 5841 5835 5827 5820 5811 5803 5793 5783 5772 5760 5748 5736 5724 5712 5700 5688 5674 5660 5644 5628 5611 5596 5581 5564 5547 5531 5515 5500 5484 5469 5453 5436 5420 5403 5386 5368 5350 5334 5320
5859 5857 5853 5850 5843 5838 5832 5824 5816 5808 5799 5789 5779 5768 5756 5744 5732 5720 5708 5696 5684 5670 5656 5641 5625 5609 5595 5579 5563 5546 5530 5514 5500 5485 5470 5455 5440 5424 5408 5391 5375 5358 5342 5327
5855 5852 5849 5845 5839 5833 5827 5822 5813 5804 5795 5785 5775 5764 5753 5741 5729 5716 5704 5692 5680 5667 5653 5638 5622 5607 5593 5578 5562 5545 5530 5515 5501 5487 5472 5458 5443 5429 5413 5398 5382 5367 5351 5336
5849 5845 5843 5841 5834 5827 5822 5815 5808 5799 5790 5781 5771 5761 5751 5738 5726 5713 5701 5689 5676 5664 5650 5635 5621 5606 5592 5577 5561 5546 5530 5516 5503 5489 5474 5460 5447 5433 5418 5404 5389 5374 5359 5344
5843 5840 5837 5834 5828 5822 5817 5811 5803 5794 5786 5777 5768 5758 5748 5735 5723 5710 5698 5685 5673 5661 5647 5634 5619 5605 5591 5577 5562 5546 5531 5518 5504 5490 5477 5463 5450 5437 5423 5409 5395 5380 5367 5353
5838 5835 5833 5828 5822 5817 5813 5806 5798 5791 5782 5774 5765 5754 5743 5732 5719 5707 5695 5682 5670 5658 5645 5632 5618 5604 5591 5576 5562 5547 5533 5519 5506 5493 5480 5467 5454 5441 5428 5416 5403 5390 5377 5364
5833 5833 5826 5822 5817 5812 5807 5801 5794 5786 5778 5770 5761 5751 5740 5729 5717 5704 5692 5679 5667 5655 5643 5630 5617 5603 5590 5576 5561 5547 5533 5520 5508 5495 5483 5471 5459 5447 5435 5423 5411 5399 5386 5373
5826 5826 5820 5815 5811 5806 5801 5795 5788 5781 5774 5765 5757 5747 5737 5726 5714 5702 5689 5676 5664 5653 5641 5628 5615 5602 5589 5575 5561 5547 5534 5521 5508 5497 5486 5475 5463 5452 5441 5430 5419 5406 5393 5381
5818 5817 5813 5810 5805 5800 5794 5788 5782 5776 5768 5761 5752 5743 5733 5722 5711 5699 5686 5674 5662 5651 5639 5627 5614 5602 5589 5575 5562 5548 5534 5522 5509 5498 5486 5476 5467 5457 5446 5434 5422 5411 5400 5389
5810 5808 5803 5803 5798 5793 5788 5782 5776 5770 5763 5755 5747 5739 5729 5719 5708 5696 5683 5671 5659 5648 5637 5625 5613 5601 5588 5575 5562 5549 5536 5523 5511 5500 5489 5478 5468 5457 5448 5438 5427 5417 5406 5395
5800 5796 5793 5792 5789 5785 5780 5774 5769 5763 5757 5750 5742 5734 5725 5715 5704 5692 5680 5669 5657 5646 5635 5623 5612 5600 5588 5575 5562 5549 5537 5525 5513 5503 5492 5482 5473 5463 5453 5442 5432 5423 5413 5403
5790 5786 5783 5782 5780 5776 5771 5766 5761 5756 5750 5744 5736 5729 5720 5710 5700 5689 5677 5665 5654 5643 5632 5621 5610 5599 5587 5575 5563 5550 5538 5526 5516 5505 5494 5484 5475 5466 5457 5448 5439 5429 5419 5410
5781 5777 5774 5772 5770 5767 5762 5757 5753 5748 5742 5736 5730 5722 5714 5705 5695 5685 5673 5662 5651 5640 5629 5619 5608 5597 5586 5575 5563 5551 5539 5527 5516 5506 5496 5486 5477 5468 5459 5450 5442 5434 5425 5416
5769 5767 5765 5762 5759 5756 5752 5748 5743 5739 5734 5729 5723 5716 5708 5700 5691 5680 5669 5658 5647 5637 5627 5617 5606 5595 5585 5574 5563 5551 5540 5528 5517 5507 5498 5488 5478 5469 5460 5452 5445 5437 5429 5421
5756 5756 5754 5752 5749 5745 5741 5737 5734 5730 5726 5721 5715 5709 5702 5694 5685 5675 5665 5654 5644 5633 5623 5614 5604 5593 5583 5573 5563 5551 5540 5529 5518 5508 5499 5489 5480 5471 5462 5454 5446 5438 5431 5423
5742 5742 5742 5740 5737 5734 5730 5727 5724 5720 5716 5712 5707 5701 5695 5687 5679 5670 5660 5650 5639 5629 5620 5610 5601 5591 5581 5572 5562 5551 5540 5529 5518 5509 5499 5490 5481 5472 5464 5455 5447 5439 5432 5425
5725 5726 5726 5725 5723 5720 5718 5715 5712 5709 5706 5702 5698 5693 5687 5680 5673 5664 5655 5645 5635 5625 5616 5607 5598 5588 5579 5570 5560 5550 5540 5529 5519 5509 5500 5491 5482 5473 5465 5456 5448 5440 5433 5427
5704 5704 5705 5707 5708 5707 5705 5703 5700 5697 5694 5691 5688 5684 5678 5673 5666 5658 5648 5639 5630 5620 5611 5603 5594 5585 5576 5568 5558 5549 5539 5529 5518 5509 5499 5491 5482 5473 5465 5457 5449 5441 5434 5428
5681 5681 5684 5688 5692 5693 5692 5690 5687 5684 5682 5680 5677 5674 5669 5664 5658 5650 5642 5633 5624 5615 5606 5598 5590 5581 5573 5565 5556 5547 5537 5528 5518 5508 5499 5490 5482 5473 5465 5457 5450 5442 5435 5429
5659 5660 5665 5671 5675 5678 5678 5676 5674 5671 5670 5668 5666 5663 5659 5655 5649 5643 5635 5627 5618 5609 5601 5593 5585 5577 5569 5561 5553 5544 5536 5526 5517 5507 5498 5489 5481 5473 5465 5458 5450 5443 5436 5429
5637 5641 5646 5653 5658 5661 5662 5662 5661 5659 5657 5656 5655 5652 5649 5645 5640 5634 5627 5620 5611 5603 5595 5588 5581 5573 5565 5557 5550 5542 5533 5525 5515 5506 5497 5488 5480 5472 5465 5457 5450 5443 5436 5430
5616 5621 5627 5634 5640 5644 5647 5647 5646 5645 5644 5644 5643 5640 5638 5635 5630 5625 5619 5612 5605 5597 5589 5582 5575 5568 5561 5553 5546 5539 5531 5522 5514 5505 5496 5487 5479 5471 5464 5457 5450 5443 5436 5430
5595 5601 5608 5615 5621 5625 5628 5629 5630 5631 5630 5630 5629 5627 5626 5624 5620 5616 5610 5604 5597 5590 5583 5576 5570 5563 5556 5549 5542 5535 5527 5520 5511 5503 5494 5486 5477 5470 5462 5455 5449 5442 5436 5430
5575 5582 5589 5596 5602 5606 5609 5612 5615 5616 5616 5616 5615 5614 5613 5612 5609 5605 5601 5595 5589 5582 5576 5569 5563 5557 5550 5544 5537 5531 5524 5516 5509 5501 5492 5484 5476 5468 5461 5454 5448 5442 5436 5430
5557 5563 5570 5577 5582 5587 5591 5595 5598 5600 5601 5602 5602 5602 5601 5600 5598 5595 5591 5586 5580 5574 5568 5562 5556 5550 5544 5538 5532 5526 5520 5513 5506 5498 5490 5482 5474 5466 5459 5452 5446 5441 5435 5430